Time,TemperatureF,DewpointF,PressureIn,WindDirection,WindDirectionDegrees,WindSpeedMPH,WindSpeedGustMPH,Humidity,HourlyPrecipIn,Conditions,Clouds,dailyrainin,SolarRadiationWatts/m^2,SoftwareType,DateUTC
2013-04-29 00:02:00,56.0,12.0,-100.00,NW,319,5.0,7.0,17,0.00,,,0.00,0.000000,,2013-04-29 06:02:00,
2013-04-29 00:11:00,56.0,12.0,-100.00,NW,319,5.0,7.0,17,0.00,,,0.00,0.000000,,2013-04-29 06:11:00,
2013-04-29 00:21:00,56.0,12.0,-100.00,NW,319,5.0,7.0,17,0.00,,,0.00,0.000000,,2013-04-29 06:21:00,
2013-04-29 00:30:00,55.0,15.0,-100.00,NW,319,4.0,7.0,20,0.00,,,0.00,0.000000,,2013-04-29 06:30:00,
2013-04-29 00:52:00,55.0,15.0,-100.00,NW,319,4.0,7.0,20,0.00,,,0.00,0.000000,,2013-04-29 06:52:00,
2013-04-29 01:01:00,55.0,15.0,-100.00,NW,319,4.0,7.0,20,0.00,,,0.00,0.000000,,2013-04-29 07:01:00,
2013-04-29 01:11:00,55.0,15.0,-100.00,NW,319,4.0,7.0,20,0.00,,,0.00,0.000000,,2013-04-29 07:11:00,
2013-04-29 01:21:00,55.0,15.0,-100.00,NW,319,4.0,7.0,20,0.00,,,0.00,0.000000,,2013-04-29 07:21:00,
2013-04-29 01:30:00,55.0,16.0,-100.00,NNW,344,5.0,7.0,21,-99.99,,,0.00,0.000000,,2013-04-29 07:30:00,
2013-04-29 01:52:00,55.0,16.0,-100.00,NNW,344,5.0,7.0,21,-99.99,,,0.00,0.000000,,2013-04-29 07:52:00,
2013-04-29 02:02:00,55.0,16.0,-100.00,NNW,344,5.0,7.0,21,-99.99,,,0.00,0.000000,,2013-04-29 08:02:00,
2013-04-29 02:11:00,55.0,16.0,-100.00,NNW,344,5.0,7.0,21,-99.99,,,0.00,0.000000,,2013-04-29 08:11:00,
2013-04-29 02:21:00,55.0,16.0,-100.00,NNW,344,5.0,7.0,21,-99.99,,,0.00,0.000000,,2013-04-29 08:21:00,
2013-04-29 02:30:00,54.0,15.0,-100.00,North,352,6.0,9.0,21,-99.99,,,0.00,0.000000,,2013-04-29 08:30:00,
2013-04-29 02:52:00,54.0,15.0,-100.00,North,352,6.0,9.0,21,-99.99,,,0.00,0.000000,,2013-04-29 08:52:00,
2013-04-29 03:01:00,54.0,15.0,-100.00,North,352,6.0,9.0,21,-99.99,,,0.00,0.000000,,2013-04-29 09:01:00,
2013-04-29 03:11:00,54.0,15.0,-100.00,North,352,6.0,9.0,21,-99.99,,,0.00,0.000000,,2013-04-29 09:11:00,
2013-04-29 03:21:00,54.0,15.0,-100.00,North,352,6.0,9.0,21,-99.99,,,0.00,0.000000,,2013-04-29 09:21:00,
2013-04-29 03:53:00,54.0,16.0,-100.00,North,2,5.0,8.0,22,-99.99,,,0.00,0.000000,,2013-04-29 09:53:00,
2013-04-29 04:02:00,54.0,16.0,-100.00,North,2,5.0,8.0,22,-99.99,,,0.00,0.000000,,2013-04-29 10:02:00,
2013-04-29 04:52:00,54.0,16.0,-100.00,NNW,348,7.0,9.0,22,-99.99,,,0.00,0.000000,,2013-04-29 10:52:00,
2013-04-29 05:02:00,54.0,16.0,-100.00,NNW,348,7.0,9.0,22,-99.99,,,0.00,0.000000,,2013-04-29 11:02:00,
2013-04-29 05:52:00,54.0,16.0,-100.00,NNW,348,5.0,9.0,22,-99.99,,,0.00,0.000000,,2013-04-29 11:52:00,
2013-04-29 06:01:00,54.0,16.0,-100.00,NNW,348,5.0,9.0,22,-99.99,,,0.00,0.000000,,2013-04-29 12:01:00,
2013-04-29 06:30:00,48.0,16.0,-100.00,NNW,339,1.0,7.0,28,-99.99,,,0.00,1.000000,,2013-04-29 12:30:00,
2013-04-29 06:52:00,48.0,16.0,-100.00,NNW,339,1.0,7.0,28,-99.99,,,0.00,1.000000,,2013-04-29 12:52:00,
2013-04-29 07:01:00,48.0,16.0,-100.00,NNW,339,1.0,7.0,28,-99.99,,,0.00,1.000000,,2013-04-29 13:01:00,
2013-04-29 07:11:00,48.0,16.0,-100.00,NNW,339,1.0,7.0,28,-99.99,,,0.00,1.000000,,2013-04-29 13:11:00,
2013-04-29 07:21:00,48.0,16.0,-100.00,NNW,339,1.0,7.0,28,-99.99,,,0.00,1.000000,,2013-04-29 13:21:00,
2013-04-29 07:52:00,58.0,20.0,-100.00,NNW,334,3.0,7.0,23,-99.99,,,0.00,84.000000,,2013-04-29 13:52:00,
2013-04-29 08:01:00,58.0,20.0,-100.00,NNW,334,3.0,7.0,23,-99.99,,,0.00,84.000000,,2013-04-29 14:01:00,
2013-04-29 08:52:00,64.0,23.0,-100.00,SW,221,2.0,4.0,21,-99.99,,,0.00,361.000000,,2013-04-29 14:52:00,
2013-04-29 09:01:00,64.0,23.0,-100.00,SW,221,2.0,4.0,21,-99.99,,,0.00,361.000000,,2013-04-29 15:01:00,
2013-04-29 09:30:00,67.0,21.0,-100.00,WNW,299,6.0,12.0,17,-99.99,,,0.00,609.000000,,2013-04-29 15:30:00,
2013-04-29 09:53:00,67.0,21.0,-100.00,WNW,299,6.0,12.0,17,-99.99,,,0.00,609.000000,,2013-04-29 15:53:00,
2013-04-29 10:02:00,67.0,21.0,-100.00,WNW,299,6.0,12.0,17,-99.99,,,0.00,609.000000,,2013-04-29 16:02:00,
2013-04-29 10:30:00,69.0,21.0,-100.00,West,273,6.0,14.0,16,0.00,,,0.00,829.000000,,2013-04-29 16:30:00,
2013-04-29 10:52:00,69.0,21.0,-100.00,West,273,6.0,14.0,16,0.00,,,0.00,829.000000,,2013-04-29 16:52:00,
2013-04-29 11:02:00,69.0,21.0,-100.00,West,273,6.0,14.0,16,0.00,,,0.00,829.000000,,2013-04-29 17:02:00,
2013-04-29 11:12:00,69.0,21.0,-100.00,West,273,6.0,14.0,16,0.00,,,0.00,829.000000,,2013-04-29 17:12:00,
2013-04-29 11:22:00,69.0,21.0,-100.00,West,273,6.0,14.0,16,0.00,,,0.00,829.000000,,2013-04-29 17:22:00,
2013-04-29 11:30:00,71.0,21.0,-100.00,West,280,5.0,12.0,15,0.00,,,0.00,997.000000,,2013-04-29 17:30:00,
2013-04-29 11:52:00,71.0,21.0,-100.00,West,280,5.0,12.0,15,0.00,,,0.00,997.000000,,2013-04-29 17:52:00,
2013-04-29 12:01:00,71.0,21.0,-100.00,West,280,5.0,12.0,15,0.00,,,0.00,997.000000,,2013-04-29 18:01:00,
2013-04-29 12:13:00,71.0,21.0,-100.00,West,280,5.0,12.0,15,0.00,,,0.00,997.000000,,2013-04-29 18:13:00,
2013-04-29 12:22:00,71.0,21.0,-100.00,West,280,5.0,12.0,15,0.00,,,0.00,997.000000,,2013-04-29 18:22:00,
2013-04-29 12:30:00,73.0,21.0,-100.00,WSW,242,8.0,20.0,14,0.00,,,0.00,1104.000000,,2013-04-29 18:30:00,
2013-04-29 12:52:00,73.0,21.0,-100.00,WSW,242,8.0,20.0,14,0.00,,,0.00,1104.000000,,2013-04-29 18:52:00,
2013-04-29 13:01:00,73.0,21.0,-100.00,WSW,242,8.0,20.0,14,0.00,,,0.00,1104.000000,,2013-04-29 19:01:00,
2013-04-29 13:11:00,73.0,21.0,-100.00,WSW,242,8.0,20.0,14,0.00,,,0.00,1104.000000,,2013-04-29 19:11:00,
2013-04-29 13:21:00,73.0,21.0,-100.00,WSW,242,8.0,20.0,14,0.00,,,0.00,1104.000000,,2013-04-29 19:21:00,
2013-04-29 13:30:00,74.0,20.0,-100.00,WSW,251,8.0,18.0,13,0.00,,,0.00,1144.000000,,2013-04-29 19:30:00,
2013-04-29 13:52:00,74.0,20.0,-100.00,WSW,251,8.0,18.0,13,0.00,,,0.00,1144.000000,,2013-04-29 19:52:00,
2013-04-29 14:02:00,74.0,20.0,-100.00,WSW,251,8.0,18.0,13,0.00,,,0.00,1144.000000,,2013-04-29 20:02:00,
2013-04-29 14:11:00,74.0,20.0,-100.00,WSW,251,8.0,18.0,13,0.00,,,0.00,1144.000000,,2013-04-29 20:11:00,
2013-04-29 14:21:00,74.0,20.0,-100.00,WSW,251,8.0,18.0,13,0.00,,,0.00,1144.000000,,2013-04-29 20:21:00,
2013-04-29 14:30:00,75.0,21.0,-100.00,West,273,8.0,22.0,13,0.00,,,0.00,1115.000000,,2013-04-29 20:30:00,
2013-04-29 14:52:00,75.0,21.0,-100.00,West,273,8.0,22.0,13,0.00,,,0.00,1115.000000,,2013-04-29 20:52:00,
2013-04-29 15:01:00,75.0,21.0,-100.00,West,273,8.0,22.0,13,0.00,,,0.00,1115.000000,,2013-04-29 21:01:00,
2013-04-29 15:11:00,75.0,21.0,-100.00,West,273,8.0,22.0,13,0.00,,,0.00,1115.000000,,2013-04-29 21:11:00,
2013-04-29 15:21:00,75.0,21.0,-100.00,West,273,8.0,22.0,13,0.00,,,0.00,1115.000000,,2013-04-29 21:21:00,
2013-04-29 15:30:00,75.0,21.0,-100.00,West,268,8.0,20.0,13,0.00,,,-99.99,1019.000000,,2013-04-29 21:30:00,
2013-04-29 15:53:00,75.0,21.0,-100.00,West,268,8.0,20.0,13,0.00,,,-99.99,1019.000000,,2013-04-29 21:53:00,
2013-04-29 16:02:00,75.0,21.0,-100.00,West,268,8.0,20.0,13,0.00,,,-99.99,1019.000000,,2013-04-29 22:02:00,
2013-04-29 16:13:00,75.0,21.0,-100.00,West,268,8.0,20.0,13,0.00,,,-99.99,1019.000000,,2013-04-29 22:13:00,
2013-04-29 16:23:00,75.0,21.0,-100.00,West,268,8.0,20.0,13,0.00,,,-99.99,1019.000000,,2013-04-29 22:23:00,
2013-04-29 16:30:00,75.0,19.0,-100.00,WSW,258,8.0,21.0,12,0.00,,,0.00,860.000000,,2013-04-29 22:30:00,
2013-04-29 16:52:00,75.0,19.0,-100.00,WSW,258,8.0,21.0,12,0.00,,,0.00,860.000000,,2013-04-29 22:52:00,
2013-04-29 17:02:00,75.0,19.0,-100.00,WSW,258,8.0,21.0,12,0.00,,,0.00,860.000000,,2013-04-29 23:02:00,
2013-04-29 17:11:00,75.0,19.0,-100.00,WSW,258,8.0,21.0,12,0.00,,,0.00,860.000000,,2013-04-29 23:11:00,
2013-04-29 17:22:00,75.0,19.0,-100.00,WSW,258,8.0,21.0,12,0.00,,,0.00,860.000000,,2013-04-29 23:22:00,
2013-04-29 17:30:00,74.0,18.0,-100.00,West,265,7.0,18.0,12,0.00,,,0.00,651.000000,,2013-04-29 23:30:00,
2013-04-29 17:52:00,74.0,18.0,-100.00,West,265,7.0,18.0,12,0.00,,,0.00,651.000000,,2013-04-29 23:52:00,
2013-04-29 18:01:00,74.0,18.0,-100.00,West,265,7.0,18.0,12,0.00,,,0.00,651.000000,,2013-04-30 00:01:00,
2013-04-29 18:11:00,74.0,18.0,-100.00,West,265,7.0,18.0,12,0.00,,,0.00,651.000000,,2013-04-30 00:11:00,
2013-04-29 18:21:00,74.0,18.0,-100.00,West,265,7.0,18.0,12,0.00,,,0.00,651.000000,,2013-04-30 00:21:00,
2013-04-29 18:30:00,72.0,10.0,-100.00,WSW,247,9.0,17.0,9,0.00,,,0.00,419.000000,,2013-04-30 00:30:00,
2013-04-29 19:01:00,72.0,10.0,-100.00,WSW,247,9.0,17.0,9,0.00,,,0.00,419.000000,,2013-04-30 01:01:00,
2013-04-29 19:11:00,72.0,10.0,-100.00,WSW,247,9.0,17.0,9,0.00,,,0.00,419.000000,,2013-04-30 01:11:00,
2013-04-29 19:21:00,72.0,10.0,-100.00,WSW,247,9.0,17.0,9,0.00,,,0.00,419.000000,,2013-04-30 01:21:00,
2013-04-29 20:30:00,62.0,11.0,-100.00,NNW,333,2.0,12.0,13,-99.99,,,0.00,5.000000,,2013-04-30 02:30:00,
2013-04-29 21:01:00,62.0,11.0,-100.00,NNW,333,2.0,12.0,13,-99.99,,,0.00,5.000000,,2013-04-30 03:01:00,
2013-04-29 21:11:00,62.0,11.0,-100.00,NNW,333,2.0,12.0,13,-99.99,,,0.00,5.000000,,2013-04-30 03:11:00,
2013-04-29 21:21:00,62.0,11.0,-100.00,NNW,333,2.0,12.0,13,-99.99,,,0.00,5.000000,,2013-04-30 03:21:00,
2013-04-29 23:30:00,60.0,14.0,-100.00,West,276,2.0,6.0,16,-99.99,,,0.00,0.000000,,2013-04-30 05:30:00,